Location: *
(42.4415°N, 3.1634°E)
Time: 13:18:18
(UTC+00:00)

Daily predictions for brighter satellites

Satellite Brightness Start Highest point End
(mag) Time Altitude Azimuth Time Altitude Azimuth Time Altitude Azimuth
FALCON 9 R/B 4.4 18:03:20 10° SW 18:09:16 34° SSE 18:34:11 10° ESE
ADEOS Rocket 3.2 18:26:24 10° NNE 18:33:11 87° ESE 18:39:13 10° SSW
USA 234 3.9 18:27:52 10° ENE 18:33:46 35° SE 18:39:38 10° SSW
H-2A R/B 2.9 18:29:42 10° SE 18:34:23 33° ENE 18:38:58 10° N
Cosmos 1626 3.5 18:31:59 10° NNE 18:34:50 21° ENE 18:37:40 10° ESE
STARLINK-1093 3.4 18:32:07 10° NW 18:35:10 45° NNE 18:38:13 10° ESE
HJ-1C 3.7 18:32:11 10° SSE 18:35:22 44° ENE 18:38:36 10° N
STARLINK-1074 3.4 18:32:34 10° NW 18:35:38 45° NNE 18:38:41 10° ESE
SL-16 R/B 2.7 18:30:33 10° S 18:35:42 37° ESE 18:40:51 10° NE
STARLINK-1087 3.4 18:33:03 10° NW 18:36:05 45° NNE 18:39:05 10° ESE
STARLINK-1225 3.6 18:32:05 10° SW 18:36:09 89° SE 18:40:15 10° NE
STARLINK-1088 3.4 18:33:30 10° NW 18:36:32 46° NNE 18:39:33 10° ESE
GEOS 3 Rocket 4.5 18:31:38 10° SSE 18:36:37 53° WSW 18:41:42 10° NW
CSL-04 Rocket 3.7 18:31:27 10° SSE 18:36:46 88° WSW 18:42:05 10° NNW
STARLINK-1115 3.4 18:33:55 10° NW 18:36:59 47° NNE 18:40:03 10° ESE
STARLINK-1076 3.4 18:34:22 10° NW 18:37:27 47° NNE 18:40:30 10° ESE
STARLINK-1092 3.4 18:34:49 10° NW 18:37:54 47° NNE 18:40:57 10° ESE
Cosmos 2333 Rocket 4.4 18:33:03 10° WSW 18:38:00 30° NW 18:42:57 10° N
STARLINK-1080 3.3 18:35:18 10° NW 18:38:20 48° NNE 18:41:22 10° ESE
STARLINK-1090 3.3 18:35:45 10° NW 18:38:48 48° NNE 18:41:50 10° ESE
STARLINK-1072 4.3 18:35:08 10° NW 18:38:59 40° NNE 18:42:48 10° E
STARLINK-1089 3.3 18:36:12 10° NW 18:39:14 48° NNE 18:42:16 10° ESE
STARLINK-1107 3.3 18:36:40 10° NW 18:39:42 49° NNE 18:42:44 10° ESE
STARLINK-1230 3.7 18:36:50 10° SW 18:40:54 85° NW 18:45:00 10° NE
STARLINK-1096 4.2 18:39:29 10° NW 18:43:20 43° NNE 18:47:12 10° ESE
STARLINK-1233 4.2 18:40:42 10° WSW 18:43:41 40° NNW 18:46:41 10° NE
STARLINK-1212 4.2 18:41:11 10° WSW 18:44:08 39° NNW 18:47:07 10° NE
STARLINK-1105 4.2 18:41:37 10° WSW 18:44:35 39° NNW 18:47:34 10° NE
FREGAT/IRIS 3.8 18:42:56 10° ESE 18:45:02 20° ENE 18:47:09 10° NNE
STARLINK-1206 4.2 18:42:07 10° W 18:45:04 38° NNW 18:48:02 10° NE
STARLINK-1247 4.3 18:42:34 10° W 18:45:30 38° NNW 18:48:27 10° NE
STARLINK-1243 3.7 18:41:40 10° WSW 18:45:43 78° NW 18:49:49 10° NE
STARLINK-1227 4.3 18:42:59 10° W 18:45:56 38° NNW 18:48:55 10° NE
STARLINK-1218 4.3 18:43:28 10° W 18:46:24 38° NNW 18:49:21 10° NE
Abrixas rocket 3.2 18:44:11 10° SSW 18:46:37 23° SE 18:49:04 10° E
STARLINK-1226 4.3 18:43:55 10° W 18:46:51 37° NNW 18:49:49 10° NE
STARLINK-1254 4.3 18:44:21 10° W 18:47:17 37° NNW 18:50:16 10° NE
STARLINK-1215 4.3 18:44:50 10° W 18:47:46 37° NNW 18:50:42 10° NE
STARLINK-1231 4.3 18:45:17 10° W 18:48:13 36° NNW 18:51:08 10° NE
STARLINK-1079 4.1 18:44:31 10° NW 18:48:25 46° NNE 18:52:10 11° ESE
STARLINK-1232 4.4 18:46:12 10° W 18:49:07 36° NNW 18:52:03 10° NE
Cosmos 1953 4.2 18:47:56 10° ESE 18:49:18 12° E 18:50:39 10° ENE
STARLINK-1217 4.4 18:46:40 10° W 18:49:34 36° NNW 18:52:30 10° NE
STARLINK-1208 4.4 18:47:05 10° W 18:50:00 36° NNW 18:52:57 10° NE
STARLINK-1229 4.4 18:47:34 10° W 18:50:28 35° NNW 18:53:23 10° NE
STARLINK-1236 3.8 18:46:27 10° WSW 18:50:30 72° NW 18:54:35 10° NE
STARLINK-1271 4.4 18:48:01 10° W 18:50:55 35° NNW 18:53:50 10° NE
Cosmos 304 Rocket 3.8 18:46:24 10° NNW 18:51:11 64° ENE 18:55:54 10° SSE
STARLINK-1270 4.4 18:48:29 10° W 18:51:23 35° NNW 18:54:17 10° NE
STARLINK-1154 4.4 18:48:57 10° W 18:51:50 34° NNW 18:54:44 10° NE
Cosmos 1709 Rocket 4.3 18:46:00 10° N 18:51:55 44° ENE 18:57:43 10° SSE
SeaSat 1 4.1 18:47:56 10° NNE 18:52:29 38° NW 18:57:00 10° WSW
Cosmos 1269 Rocket 4.1 18:47:24 10° S 18:52:35 60° ESE 18:57:49 10° NNE
STARLINK-1197 4.5 18:49:52 10° W 18:52:45 34° NNW 18:55:39 10° NE
STARLINK-1116 4.0 18:48:55 10° NW 18:52:51 49° NNE 18:56:26 12° ESE
STARLINK-1189 4.5 18:50:19 10° W 18:53:12 34° NNW 18:56:05 10° NE
SL-08 ROCKET BODY 4.4 18:50:39 10° N 18:56:48 79° E 19:02:48 10° S
YAOGAN 1 4.1 18:54:11 10° SSW 18:58:14 39° W 19:02:19 10° NNW
STARLINK-1118 3.4 18:56:57 10° WNW 18:58:59 33° SW 19:00:59 10° SSE
ISS -1.6 18:57:16 10° NW 18:59:42 18° N 19:02:08 10° NE
STARLINK-1269 4.1 18:56:19 10° WSW 19:00:21 61° NNW 19:04:24 10° NE
Cosmos 1455 Rocket 2.9 18:56:12 10° S 19:00:31 77° E 19:04:52 10° N
STARLINK-1094 3.8 18:58:09 10° NW 19:02:09 57° NNE 19:05:21 15° ESE
Cosmos 371 Rocket 4.5 18:58:03 10° NNW 19:02:39 45° WSW 19:07:13 10° S
Cosmos 2297 3.9 18:57:14 10° NNW 19:02:48 55° ENE 19:08:23 10° SE
S3M 4.3 18:57:58 10° S 19:04:19 79° W 19:10:46 10° N
Cosmos 2237 Rocket 3.3 18:59:45 10° SW 19:05:09 48° WNW 19:10:37 10° NNE
STARLINK-1200 4.2 19:01:09 10° WSW 19:05:10 57° NNW 19:09:13 10° NE
STARLINK-1117 3.7 19:02:59 10° NW 19:07:00 61° NNE 19:10:00 17° ESE
Cosmos 1805 4.4 19:05:01 10° SSW 19:08:47 47° WNW 19:12:35 10° N
Cosmos 1892 Rocket 4.0 19:05:28 10° NNW 19:09:56 68° W 19:14:22 10° S
STARLINK-1192 4.3 19:05:57 10° WSW 19:09:56 53° NNW 19:13:57 10° NE
CZ-2C R/B 3.7 19:06:33 10° NE 19:10:30 22° E 19:14:07 11° SE
Cosmos 1626 Rocket 4.0 19:06:33 10° N 19:10:43 40° ENE 19:14:44 10° SSE
STARLINK-1078 3.6 19:07:24 10° NW 19:11:28 66° NE 19:14:17 19° ESE
BREEZE-M DEB (TANK) 3.5 19:01:48 10° WNW 19:13:02 63° SW 19:15:44 15° SE
Cosmos 2278 Rocket 3.8 19:08:33 10° NW 19:13:41 36° WSW 19:18:48 10° S
Meteor 2-5 Rocket 4.3 19:08:47 10° NNW 19:14:21 61° W 19:19:48 10° S
ARGOS 3.2 19:09:21 10° SSE 19:14:40 62° ENE 19:19:59 10° N
STARLINK-1244 4.5 19:10:55 10° WSW 19:14:53 49° NNW 19:18:52 10° NE
STARLINK-1108 3.6 19:12:16 10° NW 19:16:19 72° NE 19:18:58 21° ESE
Cosmos 1602 Rocket 4.1 19:14:32 10° N 19:18:44 38° ENE 19:21:45 17° SE
STARLINK-1071 3.5 19:16:55 10° NW 19:20:59 78° NE 19:23:26 23° ESE
Okean 1-7 Rocket 4.2 19:17:37 10° NNW 19:21:57 58° W 19:26:14 10° S
USA 186 1.8 19:18:32 10° SSE 19:21:58 82° ENE 19:25:22 10° N
MOS 1 Rocket 4.3 19:20:19 10° NNE 19:24:58 31° E 19:29:44 10° SSE
STARLINK-1110 3.5 19:21:22 10° NW 19:25:27 84° NE 19:27:43 25° ESE
Meteor 1-24 Rocket 4.0 19:20:09 10° NNW 19:25:36 66° W 19:30:53 10° S
STARLINK-1124 3.5 19:22:45 10° NW 19:26:55 86° NE 19:29:13 26° SE
CZ-2C R/B 2.9 19:21:59 10° SSE 19:27:05 84° ENE 19:31:58 10° NNW
Cosmos 1544 Rocket 3.8 19:23:44 10° SSW 19:28:06 72° W 19:32:32 10° N
Cosmos 1470 2.6 19:26:18 10° S 19:30:08 75° E 19:34:02 10° NNE
SPOT 3 Rocket 3.7 19:29:48 16° SE 19:33:50 56° ENE 19:38:56 10° N
STARLINK-1122 3.5 19:30:49 10° NW 19:34:54 83° SW 19:36:48 30° SE
MOS 1 4.3 19:30:04 10° SSE 19:35:42 83° WSW 19:41:25 10° NNW
STARLINK-1126 3.6 19:35:48 10° NW 19:39:52 77° SW 19:41:36 33° SE
SJ-6B 2.9 19:36:17 12° SSE 19:40:01 85° WSW 19:44:10 10° NNW
Cosmos 2369 Rocket 2.9 19:35:52 10° N 19:41:07 36° ENE 19:43:14 27° E
Cosmos 1726 3.3 19:42:57 26° ENE 19:42:57 26° ENE 19:45:16 10° NNE
H-2A R/B 4.0 19:34:40 10° W 19:42:28 18° SW 19:45:45 10° S
Ariane Rocket 3.9 19:38:08 10° S 19:43:04 50° W 19:47:59 10° NNW
Cosmos 1758 3.4 19:40:02 10° S 19:44:07 82° W 19:48:14 10° N
STARLINK-1082 3.7 19:40:18 10° WNW 19:44:22 70° SW 19:45:55 35° SE
Aureole 2 Rocket 3.6 19:43:13 10° N 19:45:56 27° NE 19:45:56 27° NE
NOSS 3-3 (A) 4.1 19:41:27 10° S 19:46:51 44° ESE 19:52:51 10° NE
NOSS 3-3 (C) 4.1 19:41:34 10° S 19:46:58 44° ESE 19:52:57 10° NE
Cosmos 1758 Rocket 4.1 19:43:32 10° N 19:47:34 35° ENE 19:47:54 35° E
STARLINK-1100 3.8 19:45:13 10° WNW 19:49:16 65° SW 19:50:38 38° SSE
CZ-2C R/B 3.7 19:45:55 10° NNE 19:50:42 86° ESE 19:55:22 10° SSW
STARLINK-1084 4.4 19:50:02 10° NW 19:53:58 40° NNE 19:54:56 34° ENE
STARLINK-1083 3.9 19:50:00 10° WNW 19:54:00 59° SW 19:55:12 40° SSE
Spot 2 Rocket 4.5 19:55:41 28° ENE 19:56:06 29° ENE 20:00:26 10° N
Cosmos 2184 Rocket 4.1 19:50:39 10° N 19:56:51 54° ENE 19:59:38 32° SE
IRIDIUM 106 4.2 19:51:46 10° N 19:57:00 74° E 20:00:12 24° SSE
Cosmos 1606 Rocket 4.5 19:59:07 32° ENE 19:59:07 32° ENE 20:02:11 10° NNE
STARLINK-1125 4.0 19:54:32 10° WNW 19:58:31 54° SW 19:59:34 41° S
STARLINK-1098 4.3 19:55:01 10° NW 19:58:58 42° NNE 19:59:43 38° ENE
Cosmos 1943 3.5 20:01:04 37° SE 20:02:10 41° ESE 20:07:28 10° NE
Cosmos 1943 Rocket 2.1 19:57:08 10° NNW 20:02:40 69° ENE 20:04:35 41° SE
STARLINK-1109 4.1 19:59:22 10° WNW 20:03:19 49° SW 20:04:12 41° S
Meteor 1-21 Rocket 4.1 19:57:45 10° N 20:03:20 79° E 20:06:08 30° SSE
STARLINK-1123 4.1 19:59:58 10° NW 20:03:58 45° NNE 20:04:30 42° NE
Meteor 2-10 4.0 20:00:44 20° S 20:04:26 64° E 20:09:53 10° NNE
SL-8 R/B 4.4 20:01:27 10° WNW 20:06:02 44° N 20:07:35 33° ENE
Resurs 1-3 3.5 20:05:32 42° SSE 20:07:01 89° WSW 20:11:25 10° NNW
STARLINK-1091 4.2 20:04:13 10° WNW 20:08:08 45° SW 20:08:50 40° SSW
STARLINK-1097 4.0 20:04:55 10° NW 20:08:57 48° NNE 20:09:16 47° NE
Cosmos 1626 4.4 20:07:01 10° NW 20:10:02 24° W 20:13:02 10° SW
ATLAS 2AS CENTAUR R/B 3.9 20:04:57 10° NNW 20:11:40 31° NE 20:14:21 25° ENE
H-2A R/B 3.7 20:08:59 10° SSW 20:13:44 33° W 20:18:25 10° NNW
STARLINK-1099 3.9 20:09:54 10° NW 20:13:57 52° NNE 20:14:04 52° NE
Aureole 3 4.1 20:12:25 12° SSW 20:16:02 57° WNW 20:20:57 10° N
Resurs 01 Rocket 1.4 20:16:28 70° SE 20:16:55 82° ENE 20:21:21 10° N
USA 234 3.5 20:10:32 10° NE 20:17:02 70° NW 20:23:31 10° WSW
Cosmos 2154 Rocket 4.2 20:11:45 10° N 20:17:57 51° ENE 20:18:59 46° ESE
STARLINK-1104 3.9 20:14:52 10° NW 20:18:51 56° NNE 20:18:51 56° NNE
SL-16 R/B 3.9 20:14:43 10° WSW 20:19:49 34° NW 20:24:56 10° N
DMSP B5D2-2 4.2 20:15:01 10° N 20:20:14 74° WNW 20:25:26 10° SSW
Cosmos 2228 3.9 20:22:40 38° NNE 20:22:40 38° NNE 20:25:27 10° NNE
Cosmos 967 Rocket 4.4 20:15:40 10° SSW 20:22:03 71° ESE 20:28:30 10° NE
Abrixas rocket 4.0 20:19:10 10° W 20:20:46 27° W 20:20:46 27° W
STARLINK-1144 3.9 20:19:50 10° NW 20:23:38 58° N 20:23:38 58° N
Cosmos 1953 3.1 20:23:07 25° SW 20:25:11 50° WNW 20:29:04 10° N
STARLINK-1103 4.0 20:24:48 10° NW 20:28:25 58° N 20:28:25 58° N
Nadezhda 1 Rocket 3.9 20:29:47 44° SSE 20:31:56 73° E 20:38:20 10° NNE
Cosmos 1992 Rocket 3.9 20:27:12 10° NNW 20:32:26 81° WSW 20:33:07 66° S
STARLINK-1101 4.1 20:29:46 10° NW 20:33:11 56° NNW 20:33:11 56° NNW
ISS -1.7 20:33:51 10° NW 20:35:39 27° NNW 20:35:39 27° NNW
STARLINK-1102 4.3 20:34:43 10° NW 20:37:58 52° NW 20:37:58 52° NW
MetOp-B 4.0 20:40:10 80° ESE 20:40:20 81° ENE 20:45:43 10° NNW
Cosmos 1603 3.8 20:35:43 10° SSW 20:41:21 75° WNW 20:47:00 10° NNE
Cosmos 2251 Rocket 4.2 20:37:04 10° SW 20:42:17 53° WNW 20:47:34 10° NNE
Meteor 1-16 Rocket 4.3 20:40:19 34° SSW 20:42:37 69° WNW 20:48:04 10° N
Cosmos 2084 Rocket 4.0 20:39:41 10° NW 20:43:30 58° WNW 20:43:30 58° WNW
ERS-1 Rocket 4.1 20:48:38 32° NNE 20:48:38 32° NNE 20:51:49 10° N
Cosmos 2074 Rocket 4.5 20:44:13 10° NNW 20:50:21 57° W 20:53:01 33° SSW
CZ-2C R/B 3.5 20:46:05 10° N 20:51:01 46° WNW 20:55:39 11° SW
Aureole 1 Rocket 4.2 21:01:51 67° SSE 21:02:52 77° ESE 21:09:41 10° NNE
Cosmos 1656 Rocket 3.9 20:57:11 10° NNW 21:02:03 63° N 21:02:03 63° N
Meteor 1-11 4.3 20:59:06 10° NNW 21:04:29 76° NW 21:04:29 76° NW
COSMOS 2455 4.0 21:10:42 10° NNW 21:15:09 32° NNE 21:15:09 32° NNE
Cosmos 2341 Rocket 4.2 21:17:13 10° N 21:22:43 68° N 21:22:43 68° N
Cosmos 2369 Rocket 3.4 21:20:00 10° NW 21:25:03 34° WSW 21:25:03 34° WSW
Terra 3.8 21:32:45 24° N 21:32:45 24° N 21:34:38 10° N
NOSS 3-4 (A) 3.9 21:23:37 10° NNW 21:30:09 67° NNE 21:30:09 67° NNE
NOSS 3-4 (C) 3.9 21:23:43 10° NNW 21:30:14 66° NNE 21:30:14 66° NNE
Cosmos 1943 Rocket 4.3 21:42:25 10° WNW 21:45:46 17° W 21:46:08 16° WSW
ATLAS 2AS CENTAUR R/B 3.3 21:55:52 10° NW 22:01:48 56° WNW 22:01:48 56° WNW
